This demonstration page uses our WeatherBlox Daily Observations layout. Learn more.

Left ArrowRight Arrow

36.17497, -115.13722

Hourly Observations for April 26, 2017

Temp ( °F °C ) Dew Point ( °F °C ) Humidity (%) Winds ( mph kmh ) Pressure ( in mb ) Visibility ( mi km ) Precip ( " mm )
12:53 am 00:53 Clear 62 16.7 19 -7.2 19 19 NNW 5 7 29.88 1012 10 16 N/A
1:53 am 01:53 Clear 62 16.7 18 -7.8 18 18 NW 6 9 29.88 1012 10 16 N/A
2:53 am 02:53 Clear 60 15.6 19 -7.2 20 20 N N/A 29.88 1012 10 16 N/A
3:53 am 03:53 Clear 59 15 20 -6.7 22 22 NNW 3 6 29.88 1012 10 16 N/A
4:53 am 04:53 Clear 58 14.4 18 -7.8 21 21 N 6 9 29.88 1012 10 16 N/A
5:53 am 05:53 Sunny 58 14.4 24 -4.4 27 27 W 5 7 29.87 1012 10 16 N/A
6:53 am 06:53 Sunny 58 14.4 24 -4.4 27 27 N N/A 29.89 1012 10 16 N/A
7:53 am 07:53 Sunny 63 17.2 23 -5 22 22 NNE 3 6 29.91 1013 10 16 N/A
8:53 am 08:53 Sunny 67 19.4 16 -8.9 14 14 N N/A 29.89 1012 10 16 N/A
9:53 am 09:53 Mostly Cloudy 70 21.1 18 -7.8 14 14 SE 6 9 29.89 1012 10 16 N/A
10:53 am 10:53 Partly Cloudy 72 22.2 21 -6.1 15 15 E 5 7 29.88 1012 10 16 N/A
11:53 am 11:53 Sunny 75 23.9 25 -3.9 15 15 SE 8 13 29.85 1011 10 16 N/A
12:53 pm 12:53 Sunny 77 25 24 -4.4 14 14 SSE 8 13 29.80 1009 10 16 N/A
1:53 pm 13:53 Sunny 79 26.1 25 -3.9 14 14 VRB 5 7 29.77 1008 10 16 N/A
2:53 pm 14:53 Sunny 81 27.2 26 -3.3 13 13 VRB 3 6 29.73 1007 10 16 N/A
3:53 pm 15:53 Sunny 83 28.3 27 -2.8 13 13 VRB 7 11 29.67 1005 10 16 N/A
4:53 pm 16:53 Sunny 85 29.4 28 -2.2 13 13 WSW 8 13 29.65 1004 10 16 N/A
5:53 pm 17:53 Sunny 86 30 28 -2.2 12 12 SW 16 26 29.62 1003 10 16 N/A
6:53 pm 18:53 Sunny 84 28.9 30 -1.1 14 14 WSW 13 20 29.61 1003 10 16 N/A
7:53 pm 19:53 Clear 81 27.2 32 undefined 17 17 W 20 31 29.59 1002 10 16 N/A
8:53 pm 20:53 Clear 80 26.7 33 0.6 18 18 WSW 17 28 29.59 1002 10 16 N/A
9:53 pm 21:53 Clear 77 25 39 3.9 26 26 WSW 15 24 29.60 1002 10 16 N/A
10:53 pm 22:53 Clear 77 25 40 4.4 26 26 WNW 12 19 29.62 1003 10 16 N/A
11:53 pm 23:53 Clear 77 25 33 0.6 20 20 VRB 5 7 29.64 1004 10 16 N/A

Powered by AerisWeather